Weather History for Franklin, NC

Change the Weather History Date:

Monday, January 27, 2014

  Actual Average (KTOC) Record (KTOC)
Temperature  
Mean Temperature 39 °F -  
Max Temperature 51 °F 52 °F 64 °F (2014)
Min Temperature 26 °F 30 °F 39 °F (2014)
Degree Days  
Heating Degree Days 26    
Moisture  
Dew Point 23 °F    
Average Humidity 62    
Maximum Humidity 92    
Minimum Humidity 30    
Precipitation  
Precipitation 0.00 in - - ()
Sea Level Pressure  
Sea Level Pressure 29.94 in    
Wind  
Wind Speed 3 mph (NW)    
Max Wind Speed 14 mph    
Max Gust Speed 25 mph    
Visibility 10 miles    
Events Rain    
Averages and records for this station are not official NWS values.
T = Trace of Precipitation, MM = Missing Value Source: NWS Daily Summary

Daily Weather History Graph

Daily Weather History Graph

Search for Another Location

Airport:

Trip Planner

Search our weather history database for the weather conditions in past years. The results will help you decide how hot, cold, wet, or windy it might be!

Date:

Astronomy

Jan. 27, 2014 Rise Set
Actual Time 7:36 AM EST 5:56 PM EST
Civil Twilight 7:09 AM EST 6:23 PM EST
Nautical Twilight 6:38 AM EST 6:54 PM EST
Astronomical Twilight 6:08 AM EST 7:24 PM EST
Moon 4:14 AM EST (1/27) 2:43 PM EST (1/27)
Length of Visible Light 11h 14m
Length of Day
10h 20m
Waning Crescent, 15% of the Moon is Illuminated
Jan 27
Waning Crescent
Jan 30
New
Feb 6
First Quarter
Feb 14
Full
Feb 22
Last Quarter

Hourly Weather History & Observations

Time (EST) Temp. Windchill Dew Point Humidity Pressure Visibility Wind Dir Wind Speed Gust Speed Precip Events Conditions
12:15 AM 27.1 °F - 23.0 °F 84% 29.91 in 10.0 mi Calm Calm - N/A   Overcast
12:35 AM 27.3 °F - 23.5 °F 86% 29.90 in 10.0 mi Calm Calm - N/A   Overcast
12:55 AM 28.0 °F - 23.7 °F 84% 29.90 in 10.0 mi Calm Calm - N/A   Overcast
1:15 AM 28.4 °F - 24.1 °F 84% 29.90 in 10.0 mi Calm Calm - N/A   Overcast
1:35 AM 29.1 °F - 24.6 °F 83% 29.90 in 10.0 mi Calm Calm - N/A   Overcast
1:55 AM 29.7 °F - 24.6 °F 81% 29.90 in 10.0 mi Calm Calm - N/A   Mostly Cloudy
2:15 AM 29.7 °F - 25.2 °F 83% 29.90 in 10.0 mi Calm Calm - N/A   Mostly Cloudy
2:35 AM 29.8 °F 26.3 °F 25.3 °F 83% 29.89 in 10.0 mi NE 3.5 mph - N/A   Overcast
2:55 AM 30.2 °F - 25.5 °F 83% 29.89 in 10.0 mi Calm Calm - N/A   Overcast
3:15 AM 30.0 °F - 25.3 °F 83% 29.89 in 10.0 mi Calm Calm - N/A   Mostly Cloudy
3:35 AM 29.8 °F - 25.3 °F 83% 29.89 in 10.0 mi Calm Calm - N/A   Mostly Cloudy
3:55 AM 30.0 °F - 25.7 °F 84% 29.88 in 10.0 mi Calm Calm - N/A   Overcast
4:15 AM 30.2 °F - 25.5 °F 83% 29.88 in 10.0 mi Calm Calm - N/A   Overcast
4:35 AM 30.2 °F - 25.7 °F 83% 29.88 in 10.0 mi Calm Calm - N/A   Overcast
4:55 AM 30.7 °F - 26.2 °F 83% 29.89 in 10.0 mi Calm Calm - N/A   Overcast
5:15 AM 31.1 °F 27.7 °F 26.6 °F 83% 29.90 in 10.0 mi SE 3.5 mph - N/A   Overcast
5:35 AM 32.0 °F - 26.4 °F 80% 29.91 in 10.0 mi Calm Calm - N/A   Overcast
5:55 AM 32.0 °F - 26.6 °F 80% 29.92 in 10.0 mi Calm Calm - N/A Rain Light Rain
6:15 AM 32.9 °F - 27.3 °F 80% 29.92 in 7.0 mi Calm Calm - N/A Rain Light Rain
6:35 AM 32.0 °F - 28.8 °F 88% 29.91 in 10.0 mi Calm Calm - N/A Rain Light Rain
6:55 AM 31.3 °F - 28.2 °F 88% 29.91 in 10.0 mi Calm Calm - N/A   Mostly Cloudy
7:15 AM 30.4 °F - 27.7 °F 90% 29.91 in 10.0 mi Calm Calm - N/A   Mostly Cloudy
7:35 AM 30.0 °F 26.5 °F 27.9 °F 92% 29.91 in 10.0 mi WSW 3.5 mph - N/A   Overcast
7:55 AM 30.2 °F - 27.9 °F 91% 29.90 in 10.0 mi Calm Calm - N/A   Mostly Cloudy
8:15 AM 30.7 °F - 28.4 °F 91% 29.91 in 10.0 mi Calm Calm - N/A   Scattered Clouds
8:35 AM 32.0 °F - 29.5 °F 90% 29.92 in 10.0 mi Calm Calm - N/A   Scattered Clouds
8:55 AM 31.6 °F - 29.3 °F 91% 29.92 in 10.0 mi Calm Calm - N/A   Scattered Clouds
9:15 AM 33.4 °F - 30.6 °F 89% 29.92 in 10.0 mi Calm Calm - N/A   Scattered Clouds
9:35 AM 36.7 °F - 31.8 °F 83% 29.92 in 10.0 mi Calm Calm - N/A   Scattered Clouds
9:55 AM 37.2 °F - 32.0 °F 81% 29.91 in 10.0 mi Calm Calm - N/A   Scattered Clouds
10:15 AM 40.1 °F - 32.4 °F 74% 29.91 in 10.0 mi Calm Calm - N/A   Clear
10:35 AM 44.2 °F - 33.8 °F 67% 29.91 in 10.0 mi Calm Calm - N/A   Scattered Clouds
10:55 AM 47.8 °F - 32.0 °F 54% 29.92 in 10.0 mi NNW 8.1 mph - N/A   Scattered Clouds
11:15 AM 46.8 °F - 31.1 °F 55% 29.92 in 10.0 mi NNW 8.1 mph 19.6 mph N/A   Scattered Clouds
11:35 AM 47.1 °F - 31.3 °F 54% 29.92 in 10.0 mi NNW 11.5 mph 25.3 mph N/A   Scattered Clouds
11:55 AM 45.5 °F 39.9 °F 30.7 °F 56% 29.94 in 10.0 mi North 11.5 mph 21.9 mph N/A   Mostly Cloudy
12:15 PM 45.1 °F 39.5 °F 30.4 °F 56% 29.93 in 10.0 mi NNW 11.5 mph 18.4 mph N/A   Overcast
12:35 PM 47.1 °F - 30.9 °F 53% 29.93 in 10.0 mi NW 9.2 mph - N/A   Mostly Cloudy
12:55 PM 48.7 °F - 30.2 °F 49% 29.92 in 10.0 mi NW 9.2 mph - N/A   Scattered Clouds
1:15 PM 49.5 °F - 30.2 °F 48% 29.91 in 10.0 mi North 6.9 mph - N/A   Clear
1:35 PM 49.6 °F - 30.2 °F 47% 29.91 in 10.0 mi NNW 9.2 mph 19.6 mph N/A   Scattered Clouds
1:55 PM 50.0 °F - 29.8 °F 46% 29.90 in 10.0 mi West 8.1 mph - N/A   Scattered Clouds
2:15 PM 50.5 °F - 29.5 °F 44% 29.90 in 10.0 mi WNW 8.1 mph - N/A   Clear
2:35 PM 51.1 °F - 28.2 °F 41% 29.90 in 10.0 mi NNW 10.4 mph - N/A   Clear
2:55 PM 50.0 °F - 29.8 °F 46% 29.90 in 10.0 mi NNW 8.1 mph - N/A   Clear
3:15 PM 49.5 °F - 30.0 °F 47% 29.90 in 10.0 mi NNW 5.8 mph - N/A   Clear
3:35 PM 49.1 °F - 29.1 °F 46% 29.90 in 10.0 mi NW 9.2 mph - N/A   Clear
3:55 PM 47.1 °F - 28.0 °F 48% 29.91 in 10.0 mi NW 13.8 mph - N/A   Clear
4:15 PM 45.1 °F 40.8 °F 27.0 °F 49% 29.92 in 10.0 mi NNW 8.1 mph 16.1 mph N/A   Clear
4:35 PM 44.4 °F 40.0 °F 26.2 °F 49% 29.93 in 10.0 mi NW 8.1 mph - N/A   Clear
4:55 PM 43.3 °F 39.2 °F 25.3 °F 49% 29.94 in 10.0 mi NNW 6.9 mph - N/A   Clear
5:15 PM 41.4 °F 36.8 °F 23.9 °F 50% 29.95 in 10.0 mi NW 6.9 mph - N/A   Clear
5:35 PM 39.4 °F 36.1 °F 22.3 °F 50% 29.96 in 10.0 mi WNW 4.6 mph - N/A   Clear
5:55 PM 37.6 °F 33.1 °F 20.7 °F 51% 29.97 in 10.0 mi WNW 5.8 mph - N/A   Clear
6:15 PM 36.1 °F 30.6 °F 19.2 °F 50% 29.98 in 10.0 mi West 6.9 mph - N/A   Clear
6:35 PM 35.2 °F 32.4 °F 18.1 °F 50% 29.98 in 10.0 mi West 3.5 mph - N/A   Clear
6:55 PM 34.2 °F 30.0 °F 17.2 °F 50% 29.99 in 10.0 mi WNW 4.6 mph - N/A   Clear
7:15 PM 34.0 °F 28.8 °F 15.8 °F 47% 30.00 in 10.0 mi WNW 5.8 mph - N/A   Clear
7:35 PM 33.3 °F 27.9 °F 14.2 °F 46% 30.01 in 10.0 mi West 5.8 mph - N/A   Clear
7:55 PM 32.0 °F - 11.3 °F 42% 30.03 in 10.0 mi Calm Calm - N/A   Clear
8:15 PM 31.6 °F - 9.3 °F 39% 30.03 in 10.0 mi Calm Calm - N/A   Clear
8:35 PM 30.9 °F 24.3 °F 7.7 °F 38% 30.04 in 10.0 mi NNW 6.9 mph - N/A   Clear
8:55 PM 30.0 °F 26.5 °F 6.1 °F 36% 30.05 in 10.0 mi NW 3.5 mph - N/A   Clear
9:15 PM 29.7 °F 24.7 °F 5.5 °F 36% 30.06 in 10.0 mi NW 4.6 mph - N/A   Clear
9:35 PM 28.6 °F 21.5 °F 5.7 °F 38% 30.06 in 10.0 mi NNW 6.9 mph - N/A   Clear
9:55 PM 28.8 °F 20.9 °F 4.8 °F 36% 30.07 in 10.0 mi North 8.1 mph - N/A   Clear
10:15 PM 28.8 °F 22.6 °F 3.9 °F 35% 30.08 in 10.0 mi North 5.8 mph - N/A   Clear
10:35 PM 28.2 °F 17.7 °F 2.7 °F 34% 30.07 in 10.0 mi North 12.7 mph 17.3 mph N/A   Clear
10:55 PM 27.9 °F 21.5 °F 2.1 °F 33% 30.07 in 10.0 mi North 5.8 mph - N/A   Clear
11:15 PM 27.5 °F 19.3 °F 0.5 °F 31% 30.08 in 10.0 mi North 8.1 mph - N/A   Clear
11:35 PM 27.1 °F 19.7 °F -0.6 °F 30% 30.08 in 10.0 mi NW 6.9 mph - N/A   Clear
11:55 PM 26.6 °F 19.1 °F -0.2 °F 31% 30.08 in 10.0 mi NW 6.9 mph 16.1 mph N/A   Clear